This is the latest recevied weather packets stored in our database for station/object KG7FOQ-13. If no packets are shown the sender has not sent any weather packets the latest 10 day(s).
| Time | Temp. | Humidity | Pressure | Rain* | Wind** | Luminosity | Snow |
|---|---|---|---|---|---|---|---|
| 1777676809 | 20° C | 16% | 1018.8 hPa | 0 mm | - | - | - |
| 1777676509 | 19.44° C | 15% | 1018.8 hPa | 0 mm | - | - | - |
| 1777676208 | 19.44° C | 14% | 1018.9 hPa | 0 mm | - | - | - |
| 1777675908 | 19.44° C | 16% | 1019 hPa | 0 mm | - | - | - |
| 1777675607 | 18.89° C | 17% | 1019.2 hPa | 0 mm | - | - | - |
| 1777675305 | 18.89° C | 17% | 1019 hPa | 0 mm | - | - | - |
| 1777675005 | 19.44° C | 18% | 1019.2 hPa | 0 mm | - | - | - |
| 1777674705 | 19.44° C | 17% | 1019.3 hPa | 0 mm | - | - | - |
| 1777674405 | 19.44° C | 15% | 1019.4 hPa | 0 mm | - | - | - |
| 1777674105 | 19.44° C | 16% | 1019.4 hPa | 0 mm | - | - | - |
| 1777673803 | 18.89° C | 18% | 1019.5 hPa | 0 mm | - | - | - |
| 1777673502 | 18.89° C | 15% | 1019.6 hPa | 0 mm | - | - | - |
| 1777673202 | 18.89° C | 18% | 1019.6 hPa | 0 mm | - | - | - |
| 1777672898 | 18.89° C | 14% | 1019.7 hPa | 0 mm | - | - | - |
| 1777672297 | 18.33° C | 15% | 1019.9 hPa | 0 mm | - | - | - |
| 1777671998 | 18.89° C | 18% | 1020 hPa | 0 mm | - | - | - |
| 1777671696 | 18.33° C | 18% | 1020 hPa | 0 mm | - | - | - |
| 1777671396 | 18.89° C | 18% | 1020.1 hPa | 0 mm | - | - | - |
| 1777671094 | 18.33° C | 17% | 1020.2 hPa | 0 mm | - | - | - |
| 1777670794 | 18.33° C | 16% | 1020.3 hPa | 0 mm | - | - | - |
| 1777670493 | 18.33° C | 16% | 1020.3 hPa | 0 mm | - | - | - |
| 1777670191 | 18.89° C | 20% | 1020.3 hPa | 0 mm | - | - | - |
| 1777669890 | 18.89° C | 19% | 1020.4 hPa | 0 mm | - | - | - |
| 1777669590 | 18.33° C | 19% | 1020.5 hPa | 0 mm | - | - | - |
| 1777669289 | 18.33° C | 20% | 1020.5 hPa | 0 mm | - | - | - |
* Rain latest hour (hover to see other rain measurements)
** Current wind speed in m/s (hover to see current wind gust speed)